Weather History for Millington, TN

Change the Weather History Date:

Monday, January 27, 2014

  Actual Average Record
Temperature  
Mean Temperature 34 °F -  
Max Temperature 48 °F 49 °F 48 °F (2014)
Min Temperature 19 °F 32 °F 19 °F (2014)
Degree Days  
Heating Degree Days 32    
Moisture  
Dew Point 10 °F    
Average Humidity 46    
Maximum Humidity 71    
Minimum Humidity 29    
Precipitation  
Precipitation 0.00 in - - ()
Sea Level Pressure  
Sea Level Pressure 30.20 in    
Wind  
Wind Speed 14 mph (North)    
Max Wind Speed 26 mph    
Max Gust Speed 37 mph    
Visibility 10 miles    
Events      
Averages and records for this station are not official NWS values.
T = Trace of Precipitation, MM = Missing Value Source: NWS Daily Summary

Daily Weather History Graph

Daily Weather History Graph

Search for Another Location

Airport:

Trip Planner

Search our weather history database for the weather conditions in past years. The results will help you decide how hot, cold, wet, or windy it might be!

Date:

Astronomy

Jan. 27, 2014 Rise Set
Actual Time 7:02 AM CST 5:22 PM CST
Civil Twilight 6:35 AM CST 5:49 PM CST
Nautical Twilight 6:04 AM CST 6:20 PM CST
Astronomical Twilight 5:34 AM CST 6:50 PM CST
Moon 3:42 AM CST (1/27) 2:10 PM CST (1/27)
Length of Visible Light 11h 14m
Length of Day
10h 20m
Waning Crescent, 14% of the Moon is Illuminated
Jan 27
Waning Crescent
Jan 30
New
Feb 6
First Quarter
Feb 14
Full
Feb 22
Last Quarter

Hourly Weather History & Observations

Time (CST) Temp. Windchill Dew Point Humidity Pressure Visibility Wind Dir Wind Speed Gust Speed Precip Events Conditions
2:15 AM 48.2 °F - 35.6 °F 62% 29.86 in 10.0 mi West 3.5 mph - N/A   Clear
2:35 AM 46.4 °F 45.2 °F 35.6 °F 66% 29.87 in 10.0 mi West 3.5 mph - N/A   Clear
2:55 AM 46.4 °F 38.1 °F 37.4 °F 71% 29.90 in 10.0 mi North 24.2 mph 28.8 mph N/A   Clear
3:15 AM 42.8 °F 33.3 °F 30.2 °F 61% 29.94 in 10.0 mi North 24.2 mph 36.8 mph N/A   Clear
3:35 AM 39.2 °F 28.0 °F 28.4 °F 65% 29.96 in 10.0 mi North 26.5 mph - N/A   Clear
3:55 AM 37.4 °F 27.8 °F 26.6 °F 65% 29.99 in 10.0 mi North 17.3 mph - N/A   Clear
4:15 AM 37.4 °F 28.9 °F 26.6 °F 65% 30.01 in 10.0 mi North 13.8 mph - N/A   Clear
4:35 AM 35.6 °F 26.6 °F 26.6 °F 70% 30.04 in 10.0 mi North 13.8 mph 26.5 mph N/A   Clear
4:55 AM 33.8 °F 23.9 °F 23.0 °F 65% 30.05 in 10.0 mi North 15.0 mph 32.2 mph N/A   Clear
8:55 AM 28.4 °F 15.8 °F 3.2 °F 34% 30.26 in 10.0 mi North 18.4 mph - N/A   Scattered Clouds
9:55 AM 28.4 °F 15.1 °F -0.4 °F 29% 30.26 in 10.0 mi North 20.7 mph 25.3 mph N/A   Scattered Clouds
10:50 AM 28.4 °F 15.8 °F -0.4 °F 29% 30.31 in 10.0 mi North 18.4 mph - N/A   Mostly Cloudy
11:50 AM 26.6 °F 14.7 °F -0.4 °F 31% 30.31 in 10.0 mi North 15.0 mph - N/A   Mostly Cloudy
12:50 PM 24.8 °F 11.1 °F -2.2 °F 31% 30.30 in 10.0 mi North 18.4 mph - N/A   Mostly Cloudy
1:50 PM 26.6 °F 14.3 °F 5.0 °F 40% 30.29 in 10.0 mi North 16.1 mph - N/A   Mostly Cloudy
2:50 PM 24.8 °F 11.5 °F -2.2 °F 31% 30.31 in 10.0 mi North 17.3 mph - N/A   Overcast
3:50 PM 24.8 °F 12.9 °F -0.4 °F 34% 30.32 in 10.0 mi North 13.8 mph - N/A   Overcast
4:50 PM 21.2 °F 8.3 °F -2.2 °F 36% 30.35 in 10.0 mi North 13.8 mph - N/A   Overcast
5:50 PM 21.2 °F 9.5 °F -2.2 °F 36% 30.37 in 10.0 mi North 11.5 mph - N/A   Overcast
6:53 PM 21.2 °F 7.8 °F -2.2 °F 36% 30.39 in 10.0 mi North 15.0 mph - N/A   Overcast
7:53 PM 19.4 °F 5.5 °F -2.2 °F 39% 30.40 in 10.0 mi North 15.0 mph - N/A   Overcast
8:55 PM 19.4 °F 9.5 °F -2.2 °F 39% 30.40 in 10.0 mi NNE 8.1 mph - N/A   Overcast
9:50 PM 19.4 °F 6.6 °F -2.2 °F 39% 30.40 in 10.0 mi North 12.7 mph - N/A   Scattered Clouds
10:55 PM 19.4 °F 7.2 °F -2.2 °F 39% 30.41 in 10.0 mi North 11.5 mph - N/A   Scattered Clouds
11:55 PM 19.4 °F 7.2 °F -0.4 °F 42% 30.41 in 10.0 mi NNE 11.5 mph - N/A   Overcast